Lid_Strength_Index
-1 2 4 4 7 8 11 9 8 8 7 5 5 6 7 6 7 9 2 1 0 0 -1 -1 -1 -1 -1 -1 -1 -1 -1 -1 -1 -1 -1 -1 -1 -1 -1 -1 -1 -1 -1 -1 -1 -1 -1 -1 -1
0 3 3 6 9 12 11 8 9 8 6 6 5 5 6 7 5 4 3 0 0 -0 -1 -1 -1 -1 -1 -1 -1 -1 -1 -1 -1 -1 -1 -1 -1 -1 -1 -1 -1 -1 -1 -1 -1 -1 -1 -1 -1
3 4 6 7 10 11 10 8 7 7 6 6 6 4 5 7 4 3 1 0 -0 -0 -1 -1 -1 -1 -1 -1 -1 -1 -1 -1 -1 -1 -1 -1 -1 -1 -1 -1 -1 -1 -1 -1 -1 -1 -1 -1 -1
5 6 5 9 10 9 8 7 6 7 5 5 5 7 5 3 3 2 0 0 0 -0 -1 -1 -1 -1 -1 -1 -1 -1 -1 -1 -1 -1 -1 -1 -1 -1 -1 -1 -1 -1 -1 -1 -1 -1 -1 -1 -1
6 8 11 11 10 8 7 6 6 6 7 5 6 7 6 3 1 1 1 0 1 0 -1 -1 -1 -1 -1 -1 -1 -1 -1 -1 -1 -1 -1 -1 -1 -1 -1 -1 -1 -1 -1 -1 -1 -1 -1 -1 -2
9 8 13 13 12 9 6 6 6 6 6 6 6 7 6 2 2 1 0 0 0 0 -0 -1 -1 -1 -1 -1 -1 -1 -1 -1 -1 -1 -1 -1 -2 -1 -1 -1 -1 -1 -1 -1 -1 -1 -2 -2 -2
10 10 12 12 12 10 8 5 7 6 6 6 4 7 6 4 2 1 1 0 0 -0 -0 -1 -1 -1 -1 -1 -1 -1 -1 -1 -1 -1 -1 -2 -1 -1 -1 -1 -1 -1 -1 -1 -1 -2 -2 -2 -2
8 10 12 12 12 11 8 6 6 6 6 4 3 7 7 4 2 1 1 1 0 0 -0 -0 -1 -1 -1 -1 -1 -1 -1 -1 -1 -1 -1 -2 -1 -1 -1 -2 -2 -1 -1 -1 -2 -2 -2 -2 -2
9 11 13 12 12 10 8 7 5 5 6 4 4 5 4 2 2 2 2 2 1 1 0 -0 -0 -1 -1 -1 -1 -1 -1 -1 -1 -1 -1 -1 -1 -1 -1 -1 -1 -1 -1 -1 -2 -2 -1 -1 -1
9 11 12 10 9 9 8 7 6 6 5 5 5 4 3 3 3 4 3 3 2 2 1 0 -0 -0 -1 -1 -1 -1 -1 -1 -1 -1 -1 -1 -1 -2 -1 -1 -1 -1 -1 -1 -1 -2 -1 -1 -1
7 11 9 10 9 8 8 8 6 6 7 5 5 5 4 4 4 4 3 3 2 1 1 0 -0 -0 -0 -0 -1 -1 -1 -1 -1 -1 -1 -1 -2 -2 -2 -1 -1 -2 -2 -1 -1 -1 -1 -1 -1
9 7 9 9 9 8 9 8 8 7 5 4 4 3 4 4 4 4 3 3 2 2 1 0 -0 -0 -1 -1 -0 -1 -1 -1 -1 -1 -1 -1 -1 -1 -1 -1 -1 -1 -1 -1 -1 -1 -1 -1 -1
8 7 7 7 8 8 8 8 8 8 5 7 7 7 4 4 4 3 2 2 2 2 1 1 0 -0 -0 -1 -1 -0 -1 -1 -1 -1 -1 -1 -1 -1 -1 -1 -1 -1 -1 -1 -1 -1 -1 -1 -1
6 7 7 7 7 8 9 8 8 7 5 6 7 5 3 4 4 3 3 3 2 2 1 1 1 -0 -0 -0 -1 -0 -1 -1 -1 -1 -1 -1 -1 -1 -1 -0 -1 -1 -1 -1 -1 -1 -1 2 3
6 9 7 7 7 8 8 10 10 7 6 6 7 4 4 4 3 3 3 2 2 1 1 1 0 -0 -0 -0 -0 -0 -1 -1 -1 -1 -2 -1 -2 -1 -1 -1 -0 -1 -1 -1 -1 2 3 4 4
8 8 12 8 8 8 9 12 8 6 6 7 6 4 5 4 3 3 2 2 1 1 1 1 0 0 -0 -0 -0 -0 -1 -1 -1 -1 -1 -1 -1 -1 -1 -1 -1 -1 -1 -0 2 3 4 5 3
10 12 11 10 7 8 9 11 8 6 7 7 7 5 5 5 4 3 2 2 1 1 1 1 0 0 0 -0 -0 -0 -1 -1 -1 -1 -1 -1 -1 -1 -1 -1 -0 1 2 2 2 4 4 4 3
12 12 11 11 9 9 10 10 8 7 7 7 6 4 5 5 4 3 2 1 1 1 1 1 1 0 -0 0 -0 -0 -0 -0 -1 -1 -1 -1 -1 -1 -1 3 4 3 3 2 2 2 3 4 4
9 11 11 9 8 9 10 10 9 7 7 7 7 5 6 5 4 3 2 2 2 1 1 1 1 1 1 1 1 1 1 1 0 -0 -1 -1 -1 1 3 4 4 4 3 4 4 4 4 5 3
10 12 11 9 9 9 10 11 9 7 7 6 6 6 6 5 5 4 3 2 2 2 1 1 1 1 1 1 1 1 1 0 0 -0 -0 -1 1 3 4 4 5 4 5 4 4 4 5 5 4
11 14 11 11 9 9 10 11 10 8 7 5 5 4 5 6 6 5 4 3 2 2 2 1 1 1 0 0 0 0 0 1 1 1 2 1 1 3 4 4 5 5 5 5 4 4 3 6 4
13 10 10 11 10 13 10 14 11 9 8 6 5 6 6 5 5 4 4 3 3 2 1 1 1 1 0 -0 1 1 2 2 1 1 2 2 1 2 3 4 5 5 5 4 4 4 4 3 3
11 8 10 10 11 11 12 13 11 9 9 7 6 6 6 5 5 5 4 3 2 2 2 1 1 1 0 0 0 1 1 1 1 1 2 2 2 3 4 5 4 4 4 4 4 4 3 2 2
8 9 10 10 10 14 12 12 12 10 9 7 5 6 6 5 5 4 3 3 3 2 2 1 1 1 0 0 0 1 1 1 2 2 3 4 4 4 4 4 4 3 4 4 3 2 3 2 2
9 11 16 16 15 15 11 12 11 8 7 6 6 6 6 5 5 4 4 4 3 3 2 2 1 2 1 1 1 0 1 1 2 2 3 4 5 5 4 4 4 4 4 3 3 3 4 3 4
10 11 14 18 17 14 11 13 10 8 6 5 4 4 5 5 5 4 4 4 3 2 2 2 2 2 1 1 1 1 0 1 1 1 3 4 5 4 4 4 4 4 4 4 4 5 3 4 4
10 12 9 14 13 13 12 11 8 7 7 6 6 6 6 5 5 4 4 3 3 3 2 2 2 1 1 1 1 1 1 1 1 3 3 4 4 4 4 4 6 6 6 5 5 4 5 5 5
9 8 13 13 17 16 14 13 12 10 9 8 8 7 6 5 5 4 4 3 3 2 2 1 1 2 1 1 1 1 1 1 2 3 4 4 4 5 6 6 6 6 5 5 5 6 6 6 6
10 11 11 12 14 15 16 13 10 11 9 9 7 6 6 5 5 4 4 3 3 2 2 2 2 2 2 2 2 2 2 2 3 4 4 5 6 6 7 7 7 7 6 5 6 7 7 7 6
8 10 10 13 16 14 14 14 9 9 8 8 7 6 5 5 5 4 4 3 3 3 2 2 2 2 2 3 2 4 3 3 5 6 7 6 5 6 7 7 7 8 8 7 7 8 8 7 7